This is the latest recevied weather packets stored in our database for station/object KQ4OSL. If no packets are shown the sender has not sent any weather packets the latest 10 day(s).
| Time | Temp. | Humidity | Pressure | Rain* | Wind** | Luminosity | Snow |
|---|---|---|---|---|---|---|---|
| 1787539786 | 22.22° C | 94% | 1018.4 hPa | 0 mm | - | 0 W/m² | - |
| 1787539482 | 22.22° C | 94% | 1018.3 hPa | 0 mm | - | 0 W/m² | - |
| 1787539176 | 22.78° C | 93% | 1018.4 hPa | 0 mm | - | 0 W/m² | - |
| 1787538872 | 22.78° C | 93% | 1018.4 hPa | 0 mm | - | 0 W/m² | - |
| 1787538569 | 22.78° C | 93% | 1018.4 hPa | 0 mm | - | 0 W/m² | - |
| 1787538265 | 22.78° C | 94% | 1018.4 hPa | 0 mm | - | 0 W/m² | - |
| 1787537961 | 23.33° C | 93% | 1018.6 hPa | 0 mm | - | 0 W/m² | - |
| 1787537657 | 23.33° C | 92% | 1018.4 hPa | 0 mm | - | 0 W/m² | - |
| 1787537352 | 23.33° C | 93% | 1018.2 hPa | 0 mm | - | 0 W/m² | - |
| 1787537047 | 23.33° C | 92% | 1018.3 hPa | 0 mm | - | 0 W/m² | - |
| 1787536746 | 23.89° C | 91% | 1018.1 hPa | 0 mm | - | 0 W/m² | - |
| 1787536443 | 23.89° C | 88% | 1018.2 hPa | 0 mm | - | 0 W/m² | - |
| 1787536137 | 23.89° C | 92% | 1018.1 hPa | 0 mm | - | 0 W/m² | - |
| 1787535833 | 23.89° C | 91% | 1018 hPa | 0 mm | - | 0 W/m² | - |
| 1787535533 | 23.89° C | 90% | 1018.1 hPa | 0 mm | - | 0 W/m² | - |
| 1787535229 | 23.89° C | 91% | 1018 hPa | 0 mm | - | 0 W/m² | - |
| 1787534924 | 24.44° C | 89% | 1017.6 hPa | 0 mm | - | 0 W/m² | - |
| 1787534622 | 24.44° C | 90% | 1017.9 hPa | 0 mm | - | 0 W/m² | - |
| 1787534321 | 24.44° C | 90% | 1017.7 hPa | 0 mm | - | 0 W/m² | - |
| 1787534017 | 24.44° C | 90% | 1017.6 hPa | 0 mm | - | 0 W/m² | - |
| 1787533712 | 24.44° C | 91% | 1017.6 hPa | 0 mm | - | 0 W/m² | - |
| 1787533409 | 24.44° C | 89% | 1017.5 hPa | 0 mm | - | 0 W/m² | - |
| 1787533108 | 24.44° C | 90% | 1017.6 hPa | 0 mm | - | 0 W/m² | - |
| 1787532804 | 24.44° C | 89% | 1017.5 hPa | 0 mm | - | 0 W/m² | - |
| 1787532499 | 24.44° C | 89% | 1017.4 hPa | 0 mm | - | 0 W/m² | - |
* Rain latest hour (hover to see other rain measurements)
** Current wind speed in m/s (hover to see current wind gust speed)